Flag for Switzerland Weather past 2 weeks in Steffisburg, Bern, Switzerland

Now
63 °F

Light rain. Passing clouds.


Feels Like: 63 °F
Forecast: 57 / 77 °F
Wind: 3 mph from North

Location: Bern / Belp

Current Time: Sep 19, 2014 at 10:07:57 PM

Latest Report: Sep 19, 2014 at 9:20 PM


Visibility: N/A

Pressure: 30.04 "Hg

Humidity: 94%

Dew point: 61 °F

Location of SteffisburgLocation

Historic Weather in Steffisburg — Graph

°F

Steffisburg temperature yesterday

Maximum temperature yesterday: 75 °F (at 5:50 PM)
Minimum temperature yesterday: 55 °F (at 1:20 AM)
Average temperature yesterday: 62 °F

Past Weeks' High & Low Weather Summary

 TemperatureHumidityPressure
High81 °F (Sep 8, 2:50 PM)100% (Sep 5, 12:20 AM)30.12 "Hg (Sep 5, 12:20 AM)
Low43 °F (Sep 14, 6:20 AM)44% (Sep 7, 5:50 PM)29.86 "Hg (Sep 17, 2:50 PM)
Average61 °F83%30.00 "Hg
* Reported Sep 4 8:20 PM — Sep 19 8:50 PM, Steffisburg, Weather by CustomWeather, © 2014

Note: Actual official high and low records may vary slightly from our data, if they occured in-between our weather recording intervals... More about our weather records

Advertising

Steffisburg weather history for previous 24 hours

 ConditionsComfort  
Time TempWeatherWind HumidityBarometerVisibility
8:50 PM
Sep 19
64 °FSprinkles. Passing clouds.2 mph83%30.01 "HgN/A
8:20 PM63 °FBroken clouds.5 mph94%30.01 "HgN/A
7:50 PM63 °FBroken clouds.1 mph94%30.01 "HgN/A
7:20 PM64 °FScattered clouds.1 mph88%29.98 "HgN/A
6:50 PM68 °FScattered clouds.3 mph78%29.98 "HgN/A
6:20 PM70 °FScattered clouds.2 mph69%29.98 "HgN/A
5:50 PM70 °FScattered clouds.5 mph69%29.98 "HgN/A
5:20 PM72 °FScattered clouds.2 mph65%29.98 "HgN/A
4:50 PM70 °FScattered clouds.3 mph69%29.98 "HgN/A
4:20 PM72 °FScattered clouds.3 mph65%29.98 "HgN/A
3:50 PM72 °FScattered clouds.3 mph65%30.01 "HgN/A
3:20 PM70 °FPartly sunny.8 mph64%30.01 "HgN/A
2:50 PM70 °FBroken clouds.7 mph69%29.98 "HgN/A
2:20 PM68 °FBroken clouds.6 mph78%30.01 "HgN/A
1:50 PM68 °FMostly cloudy.8 mph73%30.01 "HgN/A
1:20 PM68 °FBroken clouds.5 mph78%30.01 "HgN/A
12:50 PM68 °FBroken clouds.3 mph73%30.01 "HgN/A
12:20 PM68 °FPartly sunny.3 mph78%30.01 "HgN/A
11:50 AM68 °FPartly sunny.No wind73%30.01 "HgN/A
11:20 AM68 °FPartly sunny.No wind69%30.01 "HgN/A
10:50 AM68 °FScattered clouds.6 mph73%30.01 "HgN/A
10:20 AM64 °FPartly sunny.5 mph78%30.01 "HgN/A
9:50 AM63 °FBroken clouds.5 mph88%29.98 "HgN/A
9:20 AM59 °FScattered clouds.5 mph94%29.98 "HgN/A
8:50 AM57 °FBroken clouds.5 mph100%29.98 "HgN/A
8:20 AM55 °FPartly sunny.5 mph100%29.98 "HgN/A
7:50 AM55 °FPassing clouds.2 mph94%29.98 "HgN/A
7:20 AM55 °FPassing clouds.2 mph100%29.98 "HgN/A
6:50 AM55 °FOvercast.No wind94%29.98 "HgN/A
6:20 AM55 °FClear.5 mph94%29.98 "Hg10 mi
5:50 AM55 °FPassing clouds.5 mph94%29.95 "HgN/A
5:20 AM55 °FClear.6 mph94%29.95 "HgN/A
4:50 AM55 °FClear.5 mph100%29.95 "HgN/A
4:20 AM57 °FOvercast.6 mph94%29.98 "HgN/A
3:50 AM57 °FOvercast.5 mph94%29.98 "HgN/A
3:20 AM55 °FMostly cloudy.2 mph100%29.98 "HgN/A
2:50 AM55 °FPassing clouds.2 mph100%29.98 "Hg6 mi
2:20 AM55 °FPartly cloudy.2 mph100%29.98 "HgN/A
1:50 AM57 °FOvercast.2 mph94%29.98 "HgN/A
1:20 AM57 °FPassing clouds.2 mph94%29.98 "HgN/A
12:50 AM57 °FPassing clouds.6 mph94%29.98 "HgN/A
12:20 AM57 °FPassing clouds.8 mph100%29.98 "HgN/A
11:50 PM
Sep 18
57 °FPartly cloudy.2 mph100%29.95 "Hg6 mi
11:20 PM57 °FPassing clouds.2 mph100%29.98 "HgN/A
10:50 PM59 °FPassing clouds.1 mph94%29.95 "HgN/A
10:20 PM59 °FCool.5 mph94%29.95 "HgN/A
Weather by CustomWeather, © 2014

See weather overviewHow to use our weather pages